Tracking 35051 objects as of 17-Aug-2026
HD Live streaming from Space Station
objects crossing your sky now

COSMOS 1375 DEB

Track COSMOS 1375 DEB now!
10-day predictions


NORAD ID: 17804
Int'l Code: 1982-055AW
Launch date: June 6, 1982
Source: Commonwealth of Independent States (former USSR) (CIS)
Launch site: PLESETSK MISSILE AND SPACE COMPLEX (PKMTR)

Note: This is SATELLITE DEBRIS
Your satellite tracking list
Your tracking list is empty




NASA's NSSDC Master Catalog

Two Line Element Set (TLE):
1 17804U 82055AW  26229.36070050  .00000799  00000-0  55609-3 0  9995
2 17804  65.8141 196.1341 0020626 212.8523 299.9172 14.04285394 66035
Source of the keplerian elements: AFSPC